FW2508 Weather Reports


Display with metric or nautical units.
time (UTC)temp
F
wind
direction
speed
MPH
gust
MPH
rain 1hr
in
rain 24hr
in
rain mn
in
humidity
%
barometer
mb
20260906213603 89 122 4.0 10.0 0.00 0.00 0.00 40 1016.1
20260906213102 89 44 5.0 7.0 0.00 0.00 0.00 40 1016.2
20260906212601 88 37 2.0 9.0 0.00 0.00 0.00 41 1016.3
20260906212101 89 30 5.0 9.0 0.00 0.00 0.00 40 1016.3
20260906211601 89 84 3.0 8.0 0.00 0.00 0.00 40 1016.5
20260906211103 89 37 5.0 11.0 0.00 0.00 0.00 40 1016.6
20260906210601 89 48 5.0 11.0 0.00 0.00 0.00 42 1016.7
20260906210113 89 127 4.0 11.0 0.00 0.00 0.00 40 1016.8
20260906205605 89 124 4.0 11.0 0.00 0.00 0.00 41 1016.8
20260906205059 90 144 5.0 11.0 0.00 0.00 0.00 40 1016.8
20260906204604 89 0 1.0 5.0 0.00 0.00 0.00 39 1017.0
20260906204102 88 76 3.0 7.0 0.00 0.00 0.00 40 1017.0
20260906203600 88 93 2.0 7.0 0.00 0.00 0.00 40 1017.0
20260906203101 88 130 1.0 8.0 0.00 0.00 0.00 42 1017.0
20260906202600 88 138 3.0 8.0 0.00 0.00 0.00 41 1017.1
20260906202100 88 54 4.0 8.0 0.00 0.00 0.00 40 1017.2
20260906201636 88 169 2.0 8.0 0.00 0.00 0.00 39 1017.3
20260906201101 87 167 3.0 9.0 0.00 0.00 0.00 41 1017.3
20260906200600 87 133 4.0 9.0 0.00 0.00 0.00 40 1017.4
20260906200105 87 70 4.0 9.0 0.00 0.00 0.00 44 1017.4
20260906195559 87 74 4.0 10.0 0.00 0.00 0.00 45 1017.4
20260906195100 86 0 5.0 10.0 0.00 0.00 0.00 44 1017.5
20260906194609 86 51 2.0 7.0 0.00 0.00 0.00 44 1017.5
20260906194100 86 96 4.0 7.0 0.00 0.00 0.00 46 1017.6
20260906193559 86 70 1.0 7.0 0.00 0.00 0.00 46 1017.6
20260906193102 86 41 2.0 7.0 0.00 0.00 0.00 43 1017.6
20260906192559 85 352 2.0 10.0 0.00 0.00 0.00 45 1017.8
20260906192100 85 38 4.0 10.0 0.00 0.00 0.00 45 1017.9
20260906191612 84 24 4.0 10.0 0.00 0.00 0.00 45 1017.9
20260906191101 84 18 4.0 8.0 0.00 0.00 0.00 46 1018.1
20260906190604 85 82 4.0 8.0 0.00 0.00 0.00 48 1018.1
20260906190105 84 15 1.0 8.0 0.00 0.00 0.00 46 1018.1
20260906185602 84 53 2.0 10.0 0.00 0.00 0.00 47 1018.2
20260906185100 83 0 5.0 10.0 0.00 0.00 0.00 48 1018.3
20260906184606 84 60 5.0 10.0 0.00 0.00 0.00 48 1018.4
20260906184100 83 44 3.0 8.0 0.00 0.00 0.00 52 1018.5
20260906183559 83 53 1.0 7.0 0.00 0.00 0.00 52 1018.6
20260906183106 83 49 4.0 7.0 0.00 0.00 0.00 51 1018.7
20260906182603 84 40 1.0 6.0 0.00 0.00 0.00 53 1018.8
20260906182106 84 7 2.0 6.0 0.00 0.00 0.00 53 1018.9
20260906181633 83 129 0.0 4.0 0.00 0.00 0.00 54 1019.2
20260906181100 82 140 1.0 6.0 0.00 0.00 0.00 55 1019.3
20260906180600 81 36 0.0 6.0 0.00 0.00 0.00 56 1019.4
20260906180108 81 27 1.0 6.0 0.00 0.00 0.00 58 1019.4
20260906175600 80 96 1.0 6.0 0.00 0.00 0.00 58 1019.5
20260906175101 80 164 1.0 4.0 0.00 0.00 0.00 58 1019.6
20260906174611 80 31 0.0 4.0 0.00 0.00 0.00 59 1019.8
20260906174059 80 0 0.0 4.0 0.00 0.00 0.00 59 1019.9
20260906173602 80 0 1.0 4.0 0.00 0.00 0.00 58 1020.0
20260906173106 80 39 1.0 3.0 0.00 0.00 0.00 60 1020.0
20260906172604 79 0 0.0 3.0 0.00 0.00 0.00 61 1020.1
20260906172103 78 213 1.0 4.0 0.00 0.00 0.00 63 1020.1
20260906171601 77 95 1.0 4.0 0.00 0.00 0.00 64 1020.2
20260906171100 77 283 2.0 7.0 0.00 0.00 0.00 64 1020.2
20260906170600 76 281 1.0 7.0 0.00 0.00 0.00 65 1020.3
20260906170118 77 29 1.0 4.0 0.00 0.00 0.00 64 1020.3
20260906165600 76 0 1.0 4.0 0.00 0.00 0.00 65 1020.4
20260906165100 75 0 1.0 4.0 0.00 0.00 0.00 68 1020.6
20260906164604 75 23 1.0 4.0 0.00 0.00 0.00 68 1020.6
20260906164100 75 0 0.0 4.0 0.00 0.00 0.00 69 1020.5
20260906163603 74 302 1.0 4.0 0.00 0.00 0.00 70 1020.5
20260906163109 73 0 1.0 5.0 0.00 0.00 0.00 71 1020.5
20260906162557 73 30 1.0 5.0 0.00 0.00 0.00 71 1020.6
20260906162104 73 21 0.0 6.0 0.00 0.00 0.00 73 1020.5
20260906161611 72 0 1.0 6.0 0.00 0.00 0.00 75 1020.5
20260906161100 71 39 1.0 5.0 0.00 0.00 0.00 75 1020.5
20260906160559 71 55 1.0 5.0 0.00 0.00 0.00 75 1020.6
20260906160110 71 25 2.0 5.0 0.00 0.00 0.00 75 1020.6
20260906155600 71 296 1.0 4.0 0.00 0.00 0.00 76 1020.8
20260906155104 70 34 1.0 3.0 0.00 0.00 0.00 77 1020.7
20260906154605 70 0 0.0 3.0 0.00 0.00 0.00 78 1020.6
20260906154057 69 303 1.0 3.0 0.00 0.00 0.00 79 1020.6
20260906153600 69 304 0.0 3.0 0.00 0.00 0.00 79 1020.6
20260906153114 69 0 0.0 3.0 0.00 0.00 0.00 79 1020.7
20260906152600 69 0 0.0 2.0 0.00 0.00 0.00 80 1020.8
20260906152100 69 314 0.0 2.0 0.00 0.00 0.00 80 1020.7
20260906151608 68 0 0.0 2.0 0.00 0.00 0.00 81 1020.7
20260906151100 68 0 0.0 1.0 0.00 0.00 0.00 82 1020.8
20260906150602 67 0 0.0 3.0 0.00 0.00 0.00 82 1020.9
20260906145601 68 0 0.0 6.0 0.00 0.00 0.00 81 1020.8
20260906145100 67 304 1.0 6.0 0.00 0.00 0.00 83 1020.7
20260906144602 67 0 0.0 2.0 0.00 0.00 0.00 84 1020.7
20260906144059 66 0 0.0 2.0 0.00 0.00 0.00 85 1020.8
20260906143601 66 0 0.0 3.0 0.00 0.00 0.00 85 1020.8
20260906143105 66 0 0.0 3.0 0.00 0.00 0.00 86 1020.7
20260906142559 65 0 0.0 1.0 0.00 0.00 0.00 86 1020.8
20260906142101 65 0 0.0 1.0 0.00 0.00 0.00 86 1020.9
20260906141604 65 0 0.0 1.0 0.00 0.00 0.00 87 1020.8
20260906141100 64 0 0.0 1.0 0.00 0.00 0.00 88 1020.8
20260906140600 64 0 0.0 0.0 0.00 0.00 0.00 88 1020.8
20260906140108 64 0 0.0 0.0 0.00 0.00 0.00 89 1020.8
20260906135600 63 0 0.0 2.0 0.00 0.00 0.00 90 1020.6
20260906135100 63 0 0.0 2.0 0.00 0.00 0.00 90 1020.6
20260906134618 62 318 0.0 2.0 0.00 0.00 0.00 91 1020.6
20260906134100 62 0 0.0 0.0 0.00 0.00 0.00 91 1020.5
20260906133559 62 0 0.0 2.0 0.00 0.00 0.00 92 1020.5
20260906133113 61 0 0.0 2.0 0.00 0.00 0.00 93 1020.5
20260906132600 61 0 0.0 0.0 0.00 0.00 0.00 93 1020.5
20260906132103 60 0 0.0 0.0 0.00 0.00 0.00 94 1020.5
20260906131606 60 0 0.0 0.0 0.00 0.00 0.00 94 1020.3
20260906131100 59 0 0.0 0.0 0.00 0.00 0.00 94 1020.3
20260906130559 59 0 0.0 0.0 0.00 0.00 0.00 95 1020.2
20260906130113 59 0 0.0 0.0 0.00 0.00 0.00 95 1020.1
20260906125600 58 0 0.0 0.0 0.00 0.00 0.00 96 1020.0
20260906125102 58 0 0.0 0.0 0.00 0.00 0.00 96 1020.1
20260906124605 58 0 0.0 0.0 0.00 0.00 0.00 96 1020.1
20260906124100 57 0 0.0 0.0 0.00 0.00 0.00 95 1020.2
20260906123559 57 0 0.0 0.0 0.00 0.00 0.00 95 1020.3
20260906123102 57 0 0.0 0.0 0.00 0.00 0.00 95 1020.3
20260906122600 57 0 0.0 0.0 0.00 0.00 0.00 95 1020.1
20260906122057 57 0 0.0 0.0 0.00 0.00 0.00 94 1020.1
20260906121613 57 0 0.0 0.0 0.00 0.00 0.00 94 1020.1
20260906121100 57 0 0.0 0.0 0.00 0.00 0.00 94 1020.0
20260906120600 57 0 0.0 0.0 0.00 0.00 0.00 94 1020.0
20260906120101 58 0 0.0 0.0 0.00 0.00 0.00 94 1020.1
20260906115601 58 0 0.0 0.0 0.00 0.00 0.00 94 1020.3
20260906115100 58 0 0.0 0.0 0.00 0.00 0.00 94 1020.3
20260906114620 58 0 0.0 0.0 0.00 0.00 0.00 94 1020.2
20260906114100 58 0 0.0 0.0 0.00 0.00 0.00 94 1020.1
20260906113600 58 0 0.0 0.0 0.00 0.00 0.00 93 1020.0
20260906113114 58 0 0.0 0.0 0.00 0.00 0.00 93 1020.0
20260906112603 58 0 0.0 0.0 0.00 0.00 0.00 93 1019.9
20260906112100 59 0 0.0 0.0 0.00 0.00 0.00 94 1019.8
20260906111603 58 0 0.0 0.0 0.00 0.00 0.00 94 1019.9
20260906111100 58 0 0.0 0.0 0.00 0.00 0.00 94 1019.9
20260906110557 58 0 0.0 0.0 0.00 0.00 0.00 94 1019.7
20260906110101 58 0 0.0 0.0 0.00 0.00 0.00 93 1019.6
20260906105601 57 0 0.0 0.0 0.00 0.00 0.00 90 1019.6
20260906105101 58 0 0.0 0.0 0.00 0.00 0.00 90 1019.7
20260906104604 59 0 0.0 0.0 0.00 0.00 0.00 92 1019.7
20260906104100 59 0 0.0 0.0 0.00 0.00 0.00 91 1019.7
20260906103601 60 0 0.0 0.0 0.00 0.00 0.00 91 1019.8
20260906103102 60 0 0.0 0.0 0.00 0.00 0.00 91 1019.7
20260906102559 60 0 0.0 0.0 0.00 0.00 0.00 90 1019.7
20260906102101 60 0 0.0 0.0 0.00 0.00 0.00 90 1019.6
20260906101605 60 0 0.0 0.0 0.00 0.00 0.00 90 1019.6
20260906101057 60 0 0.0 2.0 0.00 0.00 0.00 90 1019.7
20260906100557 61 0 0.0 2.0 0.00 0.00 0.00 89 1019.7
20260906100106 61 0 0.0 1.0 0.00 0.00 0.00 89 1019.6
20260906095600 61 0 0.0 1.0 0.00 0.00 0.00 89 1019.8
20260906095100 61 0 0.0 3.0 0.00 0.00 0.00 89 1019.7
20260906094612 62 0 0.0 3.0 0.00 0.00 0.00 88 1019.5
20260906094059 62 70 0.0 3.0 0.00 0.00 0.00 88 1019.6
20260906093559 62 0 1.0 3.0 0.00 0.00 0.00 88 1019.7
20260906093108 62 74 0.0 6.0 0.00 0.00 0.00 87 1019.7
20260906092559 62 76 1.0 8.0 0.00 0.00 0.00 87 1019.6
20260906092057 63 72 5.0 8.0 0.00 0.00 0.00 87 1019.4
20260906091621 63 77 5.0 8.0 0.00 0.00 0.00 86 1019.4
20260906091101 63 77 5.0 10.0 0.00 0.00 0.00 86 1019.4
20260906090600 63 68 6.0 10.0 0.00 0.00 0.00 85 1019.3
20260906090120 63 84 5.0 7.0 0.00 0.00 0.00 85 1019.2
20260906085600 64 75 4.0 7.0 0.00 0.00 0.00 85 1019.2
20260906085059 64 56 4.0 7.0 0.00 0.00 0.00 84 1019.1
20260906084625 64 70 4.0 7.0 0.00 0.00 0.00 83 1018.9
20260906084100 64 45 4.0 8.0 0.00 0.00 0.00 82 1018.9
20260906083559 64 42 5.0 8.0 0.00 0.00 0.00 81 1018.8
20260906083107 65 28 5.0 8.0 0.00 0.00 0.00 81 1018.8
20260906082557 65 11 3.0 6.0 0.00 0.00 0.00 80 1018.9
20260906082100 64 34 1.0 6.0 0.00 0.00 0.00 79 1018.8
20260906081603 64 0 0.0 4.0 0.00 0.00 0.00 79 1018.8
20260906081100 64 354 1.0 4.0 0.00 0.00 0.00 78 1018.9
20260906080600 64 0 0.0 1.0 0.00 0.00 0.00 77 1019.0
20260906080114 64 0 0.0 1.0 0.00 0.00 0.00 75 1019.2
20260906075556 64 0 0.0 2.0 0.00 0.00 0.00 74 1019.3
20260906075059 64 36 0.0 3.0 0.00 0.00 0.00 73 1019.2
20260906074603 64 36 2.0 3.0 0.00 0.00 0.00 72 1019.2
20260906074100 64 25 1.0 5.0 0.00 0.00 0.00 70 1019.2
20260906073559 64 44 3.0 5.0 0.00 0.00 0.00 69 1019.3
20260906073104 64 36 1.0 3.0 0.00 0.00 0.00 68 1019.1
20260906072600 65 32 2.0 3.0 0.00 0.00 0.00 68 1019.3
20260906072100 65 0 0.0 0.0 0.00 0.00 0.00 68 1019.3
20260906071613 65 0 0.0 0.0 0.00 0.00 0.00 70 1019.1
20260906071057 65 0 0.0 0.0 0.00 0.00 0.00 73 1019.1
20260906070600 65 0 0.0 0.0 0.00 0.00 0.00 73 1019.1
20260906070100 65 0 0.0 0.0 0.00 0.00 0.00 72 1019.0
20260906065600 66 0 0.0 0.0 0.00 0.00 0.00 71 1018.9
20260906065101 67 0 0.0 0.0 0.00 0.00 0.00 69 1018.8
20260906064603 67 0 0.0 1.0 0.00 0.00 0.00 69 1018.8
20260906064059 67 0 0.0 1.0 0.00 0.00 0.00 67 1018.6
20260906063600 68 0 0.0 2.0 0.00 0.00 0.00 65 1018.6
20260906063105 68 0 0.0 2.0 0.00 0.00 0.00 64 1018.7
20260906062601 68 9 0.0 5.0 0.00 0.00 0.00 64 1018.7
20260906062100 68 9 1.0 5.0 0.00 0.00 0.00 64 1018.7
20260906061606 68 1 0.0 1.0 0.00 0.00 0.00 64 1018.9
20260906061100 68 0 0.0 0.0 0.00 0.00 0.00 62 1018.9
20260906060559 69 0 0.0 0.0 0.00 0.00 0.00 60 1019.1
20260906060151 70 0 0.0 0.0 0.00 0.00 0.00 60 1019.2
20260906055559 70 0 0.0 3.0 0.00 0.00 0.00 59 1018.9
20260906055100 70 0 0.0 4.0 0.00 0.00 0.00 59 1018.9
20260906054616 70 304 2.0 4.0 0.00 0.00 0.00 60 1019.1
20260906054059 70 236 0.0 1.0 0.00 0.00 0.00 61 1019.3
20260906053556 70 0 0.0 1.0 0.00 0.00 0.00 60 1019.4
20260906053102 70 0 0.0 0.0 0.00 0.00 0.00 60 1019.3
20260906052559 70 0 0.0 2.0 0.00 0.00 0.00 60 1019.2
20260906052102 70 0 0.0 3.0 0.00 0.00 0.00 60 1019.3
20260906051605 70 0 1.0 3.0 0.00 0.00 0.00 60 1019.3
20260906051100 70 235 2.0 3.0 0.00 0.00 0.00 60 1019.4
20260906050601 71 235 2.0 2.0 0.00 0.00 0.00 59 1018.9
20260906050114 71 0 0.0 4.0 0.00 0.00 0.00 58 1018.7
20260906045556 71 51 2.0 4.0 0.00 0.00 0.00 58 1018.6
20260906045100 71 50 3.0 4.0 0.00 0.00 0.00 58 1018.5
20260906044603 71 54 2.0 5.0 0.00 0.00 0.00 57 1018.6
20260906044102 72 56 3.0 5.0 0.00 0.00 0.00 57 1018.5
20260906043559 72 51 3.0 4.0 0.00 0.00 0.00 57 1018.6
20260906043110 72 52 3.0 6.0 0.00 0.00 0.00 56 1018.6
20260906042559 72 68 3.0 6.0 0.00 0.00 0.00 56 1018.6
20260906042059 72 68 4.0 7.0 0.00 0.00 0.00 55 1018.4
20260906041559 73 49 4.0 7.0 0.00 0.00 0.00 54 1018.3
20260906041100 73 46 4.0 7.0 0.00 0.00 0.00 54 1018.3
20260906040600 73 41 5.0 7.0 0.00 0.00 0.00 53 1018.2
20260906035559 73 30 4.0 6.0 0.00 0.00 0.00 50 1018.2
20260906035101 73 38 3.0 8.0 0.00 0.00 0.00 48 1018.3
20260906034605 74 47 4.0 8.0 0.00 0.00 0.00 44 1018.3
20260906034059 75 33 6.0 9.0 0.00 0.00 0.00 43 1018.4
20260906033559 75 25 5.0 9.0 0.00 0.00 0.00 42 1018.3
20260906033104 76 11 6.0 10.0 0.00 0.00 0.00 41 1018.1
20260906032559 76 15 6.0 10.0 0.00 0.00 0.00 40 1018.1
20260906032059 76 22 6.0 9.0 0.00 0.00 0.00 40 1018.0
20260906031625 77 15 5.0 10.0 0.00 0.00 0.00 40 1017.9
20260906031059 76 345 6.0 10.0 0.00 0.00 0.00 40 1017.9
20260906030600 77 14 7.0 10.0 0.00 0.00 0.00 40 1017.7
20260906030104 77 345 7.0 10.0 0.00 0.00 0.00 40 1017.7
20260906025556 77 14 6.0 10.0 0.00 0.00 0.00 40 1017.7
20260906025100 77 16 3.0 11.0 0.00 0.00 0.00 40 1017.6
20260906024605 77 325 2.0 11.0 0.00 0.00 0.00 40 1017.6
20260906024101 78 1 6.0 10.0 0.00 0.00 0.00 39 1017.6
20260906023601 78 1 5.0 9.0 0.00 0.00 0.00 39 1017.6
20260906023112 78 6 2.0 5.0 0.00 0.00 0.00 38 1017.4
20260906022602 78 308 2.0 5.0 0.00 0.00 0.00 38 1017.4
20260906022059 78 349 2.0 6.0 0.00 0.00 0.00 38 1017.5
20260906021610 78 309 3.0 7.0 0.00 0.00 0.00 38 1017.4
20260906021059 78 310 3.0 7.0 0.00 0.00 0.00 38 1017.2
20260906020600 79 341 3.0 6.0 0.00 0.00 0.00 38 1017.1
20260906020104 79 307 2.0 6.0 0.00 0.00 0.00 37 1016.9
20260906015559 79 323 3.0 6.0 0.00 0.00 0.00 37 1017.1
20260906015059 79 326 3.0 5.0 0.00 0.00 0.00 36 1017.0
20260906014606 80 315 3.0 5.0 0.00 0.00 0.00 36 1017.1
20260906014059 80 324 3.0 6.0 0.00 0.00 0.00 36 1017.0
20260906013600 81 324 3.0 8.0 0.00 0.00 0.00 35 1017.0
20260906013101 81 302 4.0 8.0 0.00 0.00 0.00 34 1016.8
20260906012600 82 317 2.0 5.0 0.00 0.00 0.00 34 1016.9
20260906012059 82 322 3.0 5.0 0.00 0.00 0.00 34 1016.9
20260906011612 83 307 2.0 5.0 0.00 0.00 0.00 33 1016.9
20260906011100 83 322 3.0 4.0 0.00 0.00 0.00 32 1016.9
20260906010600 83 329 0.0 1.0 0.00 0.00 0.00 31 1016.8
20260906010114 84 0 0.0 2.0 0.00 0.00 0.00 32 1016.7
20260906005600 84 0 0.0 3.0 0.00 0.00 0.00 32 1016.7
20260906005059 85 317 1.0 3.0 0.00 0.00 0.00 32 1016.6
20260906004609 85 318 2.0 3.0 0.00 0.00 0.00 31 1016.6
20260906004059 86 321 1.0 2.0 0.00 0.00 0.00 31 1016.6
20260906003600 87 0 0.0 2.0 0.00 0.00 0.00 30 1016.6
20260906003108 88 0 0.0 3.0 0.00 0.00 0.00 29 1016.7
20260906002559 88 321 1.0 3.0 0.00 0.00 0.00 28 1016.5
20260906002100 88 321 2.0 3.0 0.00 0.00 0.00 27 1016.5
20260906001611 89 314 2.0 4.0 0.00 0.00 0.00 27 1016.4
20260906001059 89 309 0.0 6.0 0.00 0.00 0.00 28 1016.5
20260906000600 90 18 2.0 7.0 0.00 0.00 0.00 29 1016.4
20260906000110 90 11 4.0 7.0 0.00 0.00 0.00 29 1016.4
20260905235559 90 36 5.0 7.0 0.00 0.00 0.00 28 1016.4
20260905235101 91 58 4.0 7.0 0.00 0.00 0.00 27 1016.4
20260905234604 91 78 4.0 8.0 0.00 0.00 0.00 28 1016.4
20260905234104 91 70 5.0 8.0 0.00 0.00 0.00 28 1016.3
20260905233601 91 71 2.0 7.0 0.00 0.00 0.00 28 1016.3
20260905233106 91 62 2.0 7.0 0.00 0.00 0.00 28 1016.3
20260905232600 92 44 2.0 8.0 0.00 0.00 0.00 27 1016.1
20260905232100 92 44 4.0 9.0 0.00 0.00 0.00 27 1016.3
20260905231619 92 24 5.0 13.0 0.00 0.00 0.00 28 1016.3
20260905231059 92 18 5.0 13.0 0.00 0.00 0.00 28 1016.3
20260905230601 92 15 6.0 13.0 0.00 0.00 0.00 27 1016.2
20260905230108 92 54 6.0 12.0 0.00 0.00 0.00 29 1016.1
20260905225600 92 44 2.0 10.0 0.00 0.00 0.00 28 1016.0
20260905225058 92 75 6.0 10.0 0.00 0.00 0.00 26 1016.1
20260905224602 92 30 3.0 8.0 0.00 0.00 0.00 27 1016.2
20260905224101 92 46 1.0 6.0 0.00 0.00 0.00 25 1016.1
20260905223600 92 73 3.0 12.0 0.00 0.00 0.00 24 1016.0
20260905223102 92 27 3.0 12.0 0.00 0.00 0.00 23 1016.1
20260905222559 93 25 0.0 6.0 0.00 0.00 0.00 25 1016.0
20260905222100 93 96 3.0 6.0 0.00 0.00 0.00 22 1016.1
20260905221633 93 25 1.0 5.0 0.00 0.00 0.00 22 1016.2
20260905221100 93 126 1.0 5.0 0.00 0.00 0.00 22 1016.2
20260905220600 94 330 3.0 5.0 0.00 0.00 0.00 21 1016.3
20260905220106 94 293 2.0 8.0 0.00 0.00 0.00 22 1016.3
20260905215600 94 293 2.0 8.0 0.00 0.00 0.00 22 1016.4
20260905215101 94 288 3.0 8.0 0.00 0.00 0.00 22 1016.5
20260905214608 94 4 2.0 5.0 0.00 0.00 0.00 22 1016.5
20260905214103 94 290 2.0 5.0 0.00 0.00 0.00 21 1016.6